FW8699 Weather Reports


Display with metric or nautical units.
time (UTC)temp
F
wind
direction
speed
MPH
gust
MPH
rain 1hr
in
rain 24hr
in
rain mn
in
humidity
%
barometer
mb
20260906111625 73 0 0.0 1.0 0.00 0.03 0.00 98 1012.8
20260906104608 73 0 0.0 3.0 0.00 0.03 0.00 98 1012.3
20260906103056 73 0 0.0 2.0 0.00 0.03 0.00 98 1012.1
20260906101604 73 0 0.0 1.0 0.00 0.03 0.00 98 1012.2
20260906100058 73 0 0.0 2.0 0.00 0.03 0.00 98 1011.9
20260906094558 73 0 0.0 0.0 0.00 0.03 0.00 98 1011.8
20260906093104 73 0 0.0 3.0 0.00 0.03 0.00 98 1011.7
20260906091600 73 115 0.0 5.0 0.00 0.03 0.00 98 1011.7
20260906090115 73 0 0.0 2.0 0.00 0.03 0.00 98 1011.7
20260906084610 73 0 0.0 1.0 0.00 0.03 0.00 98 1011.5
20260906083103 72 0 0.0 1.0 0.00 0.03 0.00 98 1011.5
20260906081607 72 0 0.0 0.0 0.00 0.03 0.00 98 1011.2
20260906074607 72 0 0.0 0.0 0.00 0.03 0.00 98 1011.0
20260906073107 72 0 0.0 0.0 0.00 0.03 0.00 97 1010.9
20260906071600 72 0 0.0 0.0 0.00 0.03 0.00 97 1010.9
20260906070134 72 0 0.0 0.0 0.00 0.03 0.00 97 1010.9
20260906064556 72 0 0.0 0.0 0.00 0.03 0.00 97 1011.1
20260906063105 72 0 0.0 0.0 0.00 0.03 0.00 97 1011.1
20260906061627 72 0 0.0 0.0 0.00 0.03 0.00 97 1011.2
20260906060104 72 0 0.0 0.0 0.00 0.03 0.00 97 1011.4
20260906054602 72 0 0.0 0.0 0.00 0.03 0.00 97 1011.7
20260906053102 72 0 0.0 0.0 0.00 0.03 0.00 97 1011.7
20260906051604 72 0 0.0 0.0 0.00 0.03 0.00 97 1011.9
20260906050115 73 0 0.0 0.0 0.00 0.03 0.00 97 1012.0
20260906044603 73 0 0.0 0.0 0.00 0.03 0.00 97 1012.0
20260906043111 73 0 0.0 1.0 0.00 0.03 0.00 97 1012.2
20260906041601 73 0 0.0 3.0 0.00 0.03 0.00 97 1012.2
20260906040115 74 223 1.0 3.0 0.00 0.03 0.00 97 1012.2
20260906034559 74 213 1.0 3.0 0.00 0.03 0.03 97 1012.3
20260906033103 74 0 0.0 0.0 0.00 0.03 0.03 96 1012.3
20260906031608 74 0 0.0 2.0 0.00 0.03 0.03 96 1012.4
20260906030110 74 0 0.0 0.0 0.00 0.03 0.03 96 1012.3
20260906024603 74 0 0.0 0.0 0.00 0.03 0.03 96 1012.4
20260906023122 75 0 0.0 3.0 0.00 0.03 0.03 96 1012.4
20260906021600 75 119 2.0 4.0 0.00 0.03 0.03 96 1012.2
20260906020057 75 0 0.0 0.0 0.00 0.03 0.03 95 1012.0
20260906014626 75 0 0.0 0.0 0.00 0.03 0.03 95 1011.8
20260906013100 75 0 0.0 0.0 0.00 0.03 0.03 95 1011.8
20260906011558 75 0 0.0 0.0 0.00 0.03 0.03 95 1011.6
20260906010058 75 0 0.0 0.0 0.00 0.03 0.03 94 1011.8
20260906004613 76 0 0.0 0.0 0.00 0.03 0.03 93 1011.7
20260906003100 76 0 0.0 0.0 0.00 0.03 0.03 92 1011.7
20260906001557 76 0 0.0 2.0 0.00 0.03 0.03 92 1011.5
20260906000111 77 285 2.0 3.0 0.00 0.03 0.03 92 1011.1
20260905234604 77 0 0.0 2.0 0.00 0.03 0.03 91 1010.9
20260905233058 77 0 0.0 2.0 0.00 0.03 0.03 92 1010.7
20260905231602 77 0 0.0 0.0 0.00 0.03 0.03 91 1010.5
20260905230104 77 0 0.0 0.0 0.00 0.03 0.03 92 1010.0
20260905224608 76 0 0.0 1.0 0.00 0.03 0.03 92 1009.7
20260905223102 76 0 0.0 3.0 0.01 0.03 0.03 93 1009.9
20260905221603 76 0 0.0 0.0 0.03 0.03 0.03 93 1009.9
20260905220118 76 0 0.0 0.0 0.03 0.03 0.03 92 1010.3
20260905214602 77 0 0.0 1.0 0.03 0.03 0.03 90 1010.1
20260905213107 78 0 0.0 4.0 0.02 0.02 0.02 86 1010.8
20260905211609 80 0 1.0 5.0 0.00 0.00 0.00 79 1010.6
20260905210104 82 0 1.0 8.0 0.00 0.00 0.00 72 1010.1
20260905204602 83 65 0.0 6.0 0.00 0.00 0.00 70 1010.3
20260905203103 85 61 3.0 21.0 0.00 0.00 0.00 66 1009.8
20260905201623 88 29 4.0 11.0 0.00 0.00 0.00 62 1010.4
20260905200100 96 352 1.0 6.0 0.00 0.00 0.00 52 1009.4
20260905194604 96 279 3.0 7.0 0.00 0.00 0.00 52 1009.4
20260905193101 95 84 1.0 4.0 0.00 0.00 0.00 52 1009.4
20260905191604 95 51 2.0 3.0 0.00 0.00 0.00 56 1009.2
20260905190113 95 0 0.0 3.0 0.00 0.00 0.00 53 1009.5
20260905184604 97 0 0.0 2.0 0.00 0.00 0.00 50 1009.5
20260905183125 97 0 0.0 5.0 0.00 0.00 0.00 52 1009.7
20260905181605 96 248 2.0 4.0 0.00 0.00 0.00 53 1010.0
20260905180109 96 321 1.0 4.0 0.00 0.00 0.00 54 1010.5
20260905174559 96 263 2.0 7.0 0.00 0.00 0.00 54 1011.0
20260905173101 96 272 2.0 11.0 0.00 0.00 0.00 53 1011.2
20260905171605 95 280 4.0 9.0 0.00 0.00 0.00 55 1011.6
20260905170100 95 248 2.0 7.0 0.00 0.00 0.00 57 1011.8
20260905164607 94 280 3.0 8.0 0.00 0.00 0.00 57 1012.0
20260905163105 94 311 2.0 9.0 0.00 0.00 0.00 57 1012.2
20260905161557 93 304 1.0 5.0 0.00 0.00 0.00 57 1012.3
20260905160114 92 296 2.0 6.0 0.00 0.00 0.00 61 1012.6
20260905154601 91 306 1.0 7.0 0.00 0.00 0.00 62 1012.8
20260905153112 91 269 1.0 5.0 0.00 0.00 0.00 64 1013.1
20260905151609 89 260 3.0 7.0 0.00 0.00 0.00 66 1013.0
20260905150104 88 265 0.0 5.0 0.00 0.00 0.00 70 1013.1
20260905144604 87 239 3.0 8.0 0.00 0.00 0.00 71 1013.0
20260905143107 87 265 1.0 7.0 0.00 0.00 0.00 73 1013.2
20260905141559 85 294 2.0 5.0 0.00 0.00 0.00 74 1013.0
20260905140109 84 267 1.0 4.0 0.00 0.00 0.00 79 1013.0
20260905134600 82 246 3.0 7.0 0.00 0.00 0.00 82 1012.8
20260905133107 81 254 2.0 8.0 0.00 0.00 0.00 85 1012.9
20260905131610 80 252 4.0 8.0 0.00 0.00 0.00 86 1013.1
20260905130105 78 244 2.0 5.0 0.00 0.00 0.00 88 1013.1
20260905124605 77 253 2.0 4.0 0.00 0.00 0.00 90 1013.1
20260905123110 77 241 2.0 4.0 0.00 0.00 0.00 91 1013.2
20260905121602 76 242 0.0 3.0 0.00 0.00 0.00 91 1013.2
20260905120114 75 0 0.0 3.0 0.00 0.00 0.00 91 1013.2
20260905114604 74 0 0.0 0.0 0.00 0.00 0.00 91 1013.0
20260905113105 74 0 0.0 0.0 0.00 0.00 0.00 91 1012.8